Weather History for KCWI - May, 2012

Change the Weather History Date:

Tuesday, May 15, 2012

  Actual Average Record
Temperature  
Mean Temperature 70 °F -  
Max Temperature 87 °F 72 °F 89 °F (1977)
Min Temperature 53 °F 50 °F 32 °F (1997)
Cooling Degree Days 5    
Growing Degree Days 20 (Base 50)    
Moisture  
Dew Point 45 °F    
Average Humidity 43    
Maximum Humidity 67    
Minimum Humidity 21    
Precipitation  
Precipitation 0.00 in - - ()
Sea Level Pressure  
Sea Level Pressure 29.94 in    
Wind  
Wind Speed 11 mph (WSW)    
Max Wind Speed 32 mph    
Max Gust Speed 40 mph    
Visibility 10 miles    
Events      
Averages and records for this station are not official NWS values.
T = Trace of Precipitation, MM = Missing Value Source: NWS Daily Summary

Daily Weather History Graph

Daily Weather History Graph

Search for Another Location

Airport or City:

Trip Planner

Search our weather history database for the weather conditions in past years. The results will help you decide how hot, cold, wet, or windy it might be!

Date:

Astronomy

May. 15, 2012 Rise Set
Actual Time 5:40 AM CDT 8:15 PM CDT
Civil Twilight 5:08 AM CDT 8:47 PM CDT
Nautical Twilight 4:29 AM CDT 9:27 PM CDT
Astronomical Twilight 3:44 AM CDT 10:12 PM CDT
Moon 2:47 AM CDT (5/15) 3:29 PM CDT (5/15)
Length of Visible Light 15h 38m
Length of Day
14h 34m
Waning Crescent, 23% of the Moon is Illuminated
May 15
Waning Crescent
May 20
New
May 28
First Quarter
Jun 4
Full
Jun 11
Last Quarter

Hourly Weather History & Observations

Time (CDT) Temp. Dew Point Humidity Pressure Visibility Wind Dir Wind Speed Gust Speed Precip Events Conditions
12:15 AM 60.8 °F 41.0 °F 48% 30.01 in 10.0 mi SSW 3.5 mph - N/A   Clear
12:35 AM 60.8 °F 41.0 °F 48% 30.01 in 10.0 mi SW 5.8 mph - N/A   Clear
12:55 AM 60.8 °F 41.0 °F 48% 30.01 in 10.0 mi SW 5.8 mph - N/A   Clear
1:15 AM 60.8 °F 41.0 °F 48% 30.00 in 10.0 mi WSW 5.8 mph - N/A   Clear
1:35 AM 60.8 °F 41.0 °F 48% 30.00 in 10.0 mi WSW 6.9 mph - N/A   Clear
1:55 AM 57.2 °F 41.0 °F 55% 30.00 in 10.0 mi WSW 6.9 mph - N/A   Clear
2:15 AM 57.2 °F 42.8 °F 59% 29.99 in 10.0 mi SW 6.9 mph - N/A   Clear
2:35 AM 57.2 °F 42.8 °F 59% 29.99 in 10.0 mi WSW 8.1 mph - N/A   Clear
2:55 AM 55.4 °F 42.8 °F 63% 29.99 in 10.0 mi WSW 8.1 mph - N/A   Clear
3:15 AM 55.4 °F 42.8 °F 63% 29.99 in 10.0 mi SW 6.9 mph - N/A   Clear
3:35 AM 57.2 °F 42.8 °F 59% 29.99 in 10.0 mi SW 8.1 mph - N/A   Clear
3:55 AM 55.4 °F 42.8 °F 63% 29.99 in 10.0 mi WSW 6.9 mph - N/A   Clear
4:15 AM 55.4 °F 42.8 °F 63% 29.99 in 10.0 mi WSW 5.8 mph - N/A   Clear
4:35 AM 55.4 °F 42.8 °F 63% 29.99 in 10.0 mi WSW 5.8 mph - N/A   Clear
4:55 AM 55.4 °F 42.8 °F 63% 29.99 in 10.0 mi WSW 8.1 mph - N/A   Clear
5:15 AM 53.6 °F 42.8 °F 67% 29.99 in 10.0 mi WSW 8.1 mph - N/A   Clear
5:35 AM 53.6 °F 42.8 °F 67% 29.99 in 10.0 mi WSW 8.1 mph - N/A   Clear
5:55 AM 53.6 °F 41.0 °F 62% 30.00 in 10.0 mi WSW 8.1 mph - N/A   Clear
6:15 AM 53.6 °F 42.8 °F 67% 30.01 in 10.0 mi WSW 9.2 mph - N/A   Clear
6:35 AM 55.4 °F 44.6 °F 67% 30.01 in 10.0 mi WSW 8.1 mph - N/A   Clear
6:55 AM 57.2 °F 44.6 °F 63% 30.01 in 10.0 mi WSW 8.1 mph - N/A   Clear
7:15 AM 60.8 °F 44.6 °F 55% 30.01 in 10.0 mi WSW 9.2 mph - N/A   Clear
7:35 AM 62.6 °F 44.6 °F 52% 30.01 in 10.0 mi West 12.7 mph - N/A   Clear
7:55 AM 64.4 °F 42.8 °F 45% 30.01 in 10.0 mi WSW 13.8 mph - N/A   Clear
8:15 AM 66.2 °F 44.6 °F 46% 30.00 in 10.0 mi WSW 16.1 mph 19.6 mph N/A   Clear
8:35 AM 69.8 °F 44.6 °F 40% 30.00 in 10.0 mi WSW 16.1 mph - N/A   Clear
8:55 AM 71.6 °F 44.6 °F 38% 30.00 in 10.0 mi WSW 18.4 mph 21.9 mph N/A   Clear
9:15 AM 73.4 °F 42.8 °F 33% 29.99 in 10.0 mi WSW 21.9 mph - N/A   Clear
9:35 AM 75.2 °F 42.8 °F 31% 29.99 in 10.0 mi WSW 24.2 mph 29.9 mph N/A   Clear
9:55 AM 75.2 °F 44.6 °F 34% 29.98 in 10.0 mi WSW 23.0 mph 29.9 mph N/A   Clear
10:15 AM 77.0 °F 46.4 °F 34% 29.98 in 10.0 mi WSW 18.4 mph - N/A   Clear
10:35 AM 78.8 °F 46.4 °F 32% 29.98 in 10.0 mi WSW 18.4 mph 26.5 mph N/A   Clear
10:55 AM 78.8 °F 48.2 °F 34% 29.97 in 10.0 mi SW 20.7 mph 27.6 mph N/A   Clear
11:15 AM 80.6 °F 48.2 °F 32% 29.97 in 10.0 mi SW 19.6 mph - N/A   Clear
11:35 AM 80.6 °F 48.2 °F 32% 29.96 in 10.0 mi SW 18.4 mph 26.5 mph N/A   Clear
11:55 AM 82.4 °F 48.2 °F 30% 29.96 in 10.0 mi SW 17.3 mph 26.5 mph N/A   Clear
12:15 PM 82.4 °F 50.0 °F 32% 29.95 in 10.0 mi SW 20.7 mph 25.3 mph N/A   Clear
12:35 PM 84.2 °F 48.2 °F 29% 29.93 in 10.0 mi SW 21.9 mph 25.3 mph N/A   Clear
12:55 PM 84.2 °F 46.4 °F 27% 29.93 in 10.0 mi West 18.4 mph 28.8 mph N/A   Clear
1:15 PM 84.2 °F 46.4 °F 27% 29.91 in 10.0 mi WSW 23.0 mph 29.9 mph N/A   Clear
1:35 PM 86.0 °F 46.4 °F 25% 29.91 in 10.0 mi SW 19.6 mph 27.6 mph N/A   Clear
1:55 PM 86.0 °F 46.4 °F 25% 29.90 in 10.0 mi WSW 18.4 mph 25.3 mph N/A   Clear
2:15 PM 87.8 °F 44.6 °F 22% 29.89 in 10.0 mi WSW 19.6 mph 26.5 mph N/A   Clear
2:35 PM 87.8 °F 44.6 °F 22% 29.88 in 10.0 mi WSW 20.7 mph 27.6 mph N/A   Clear
2:55 PM 87.8 °F 44.6 °F 22% 29.88 in 10.0 mi WSW 23.0 mph 27.6 mph N/A   Clear
3:15 PM 87.8 °F 42.8 °F 21% 29.87 in 10.0 mi WSW 20.7 mph 28.8 mph N/A   Clear
3:35 PM 87.8 °F 42.8 °F 21% 29.86 in 10.0 mi WSW 24.2 mph 28.8 mph N/A   Clear
3:55 PM 87.8 °F 42.8 °F 21% 29.86 in 10.0 mi West 19.6 mph 23.0 mph N/A   Partly Cloudy
4:15 PM 87.8 °F 42.8 °F 21% 29.86 in 10.0 mi West 19.6 mph 26.5 mph N/A   Partly Cloudy
4:35 PM 87.8 °F 42.8 °F 21% 29.85 in 10.0 mi WSW 23.0 mph 28.8 mph N/A   Partly Cloudy
4:55 PM 87.8 °F 42.8 °F 21% 29.84 in 10.0 mi WSW 20.7 mph 27.6 mph N/A   Partly Cloudy
5:15 PM 87.8 °F 42.8 °F 21% 29.84 in 10.0 mi WSW 18.4 mph 27.6 mph N/A   Clear
5:35 PM 86.0 °F 42.8 °F 22% 29.84 in 10.0 mi WSW 21.9 mph - N/A   Clear
5:55 PM 84.2 °F 44.6 °F 25% 29.83 in 10.0 mi WSW 19.6 mph 25.3 mph N/A   Partly Cloudy
6:15 PM 82.4 °F 44.6 °F 26% 29.83 in 9.0 mi WSW 23.0 mph 34.5 mph N/A   Clear
6:35 PM 80.6 °F 44.6 °F 28% 29.86 in 8.0 mi WNW 32.2 mph 40.3 mph N/A   Mostly Cloudy
6:55 PM 73.4 °F 51.8 °F 47% 29.85 in 10.0 mi WSW 15.0 mph - N/A   Mostly Cloudy
7:15 PM 75.2 °F 51.8 °F 44% 29.85 in 10.0 mi WSW 10.4 mph - N/A   Partly Cloudy
7:35 PM 73.4 °F 51.8 °F 47% 29.85 in 10.0 mi WSW 8.1 mph - N/A   Clear
7:55 PM 69.8 °F 53.6 °F 56% 29.86 in 10.0 mi WSW 5.8 mph - N/A   Clear
8:15 PM 68.0 °F 53.6 °F 60% 29.87 in 10.0 mi WSW 8.1 mph - N/A   Clear
8:35 PM 69.8 °F 51.8 °F 53% 29.88 in 10.0 mi West 10.4 mph - N/A   Clear
8:55 PM 68.0 °F 51.8 °F 56% 29.89 in 10.0 mi West 9.2 mph - N/A   Clear
9:15 PM 69.8 °F 46.4 °F 43% 29.91 in 10.0 mi North 11.5 mph - N/A   Clear
9:35 PM 66.2 °F 46.4 °F 49% 29.92 in 10.0 mi North 11.5 mph - N/A   Clear
9:55 PM 64.4 °F 44.6 °F 49% 29.93 in 10.0 mi North 11.5 mph - N/A   Clear
10:15 PM 64.4 °F 42.8 °F 45% 29.94 in 10.0 mi North 9.2 mph - N/A   Clear
10:35 PM 60.8 °F 42.8 °F 52% 29.95 in 10.0 mi North 8.1 mph - N/A   Clear
10:55 PM 60.8 °F 42.8 °F 52% 29.96 in 10.0 mi North 8.1 mph - N/A   Clear
11:15 PM 59.0 °F 42.8 °F 55% 29.96 in 10.0 mi North 10.4 mph - N/A   Clear
11:35 PM 57.2 °F 42.8 °F 59% 29.97 in 10.0 mi North 10.4 mph - N/A   Clear
11:55 PM 59.0 °F 41.0 °F 51% 29.97 in 10.0 mi NNW 10.4 mph - N/A   Clear